Showing default

O3B MPOWER F06, 58347

Orbit data source: Space-Track

O3B MPOWER F06, 58347 is a payload satellite owned by O3B SES (LU) that was launched on Sun, 12 Nov 2023 UTC via an FALCON 9 launch vehicle from the Air Force Eastern Test Range (AFETR). Payload-class satellites include a variety of spacecraft equipped with specific instruments for various scientific and technological missions. These include communications satellites like Starlink; space stations such as the ISS; scientific satellites like the Hubble; Earth observation satellites from companies like Planet Labs, Umbra, and HawkEye 360; GPS; miniature CubeSats for education and research; and military/defense satellites.

Loading next visibility...
Identifier
58347, 2023-175B
Orbit
Active
Country
Flag of LULU / SES
Related business
Manufacturer
Boeing/ES
Mission
Partially operational Commercial Communications
Bus & Motor
702X, PPS5000
Mass
1,700 kg wet, 1,700 kg dry
Launch date (UTC)
2023-11-12 (3 years ago)
Launch vehicle
FALCON 9
Launch site
Air Force Eastern Test Range (AFETR)
Object type
Payload
Rocket body
Debris
Shape & HBR
Box + 2 Pan, 13.5 m
Radar Cross Section
27.396 m², Large (>1 m²)

Expand to show TLE details & history
Last TLE update: 20 hours ago

TLE from 20 hours ago
0 O3B MPOWER F06
1 58347U 23175B   26202.39040680 -.00000024  00000-0  00000-0 0  9994
2 58347   0.0545   0.2233 0004432 118.6448 241.1737  5.00115743 50060
Epoch: 2026-07-21T09:22Z
TLE epoch observation values (Epoch: 2026-07-21T09:22:11.147Z)
Latitude
-0.00287°
Longitude
-79.70725°
Altitude
8,067.457 km
Speed
5.253 km/s
True Right ascension
23h 59m 59s
True Declination
0° 00' 10"
Sunlit
Object was in daylight at epoch
Visualization orbit readout
Latitude
Unknown
Longitude
Unknown
Altitude
Unknown
Speed
Unknown
Apparent Right ascension
Unknown
Apparent Declination
Unknown
Sunlit
N/A
Visualization observer readout
Local Sidereal Time
18:33:45
Azimuth
Unknown
Elevation
Unknown
Doppler factor
Unknown
Orbital elements
Apogee altitude
8,075.347 km
Perigee altitude
8,062.541 km
Semi-major axis
14,447.081 km
Eccentricity
0.00044
Inclination
0.0545°
RAAN
0.2233°
Arg. of periapsis
118.6448°
True anomaly
241.12922°
Mean anomaly
241.1737°
Eccentric anomaly
241.15146°
Mean motion
1.24989 °/min
Orbital period
288.02 mins
BSTAR
0
Loading maneuver chart data...
Computing Atmospheric mass density...
Loading historical data...
Loading historical data...
Loading historical data...
Loading historical data...
Loading historical data...
Loading historical data...
Loading historical data...
Other satellites on launch #175 in the year 2023 (2023-11-12 UTC)

Documentation

Showing up to 5 results
|